SENTINEL-6B

Last updated on Sun Jun 21 2026 00:02:53 GMT+0000 (Coordinated Universal Time)

1 66514U 25264A 26171.28694495 -.00000044 00000+0 73559-4 0 9996 2 66514 66.0399 128.7401 0007997 269.1256 90.8843 12.80929983 27566
UTC large
Height (km)
Speed (km/s)
/
Latitude / Longitude
Inclination (degrees)
Orbital Period (minutes)
Azimuth
Elevation
Range (km)
Doppler Factor

Next 0 passes for location: London (51.5072 / 0.1276)

No passes found over London.
SENTINEL-6B